Location: Peebles
(55.6412°N, 3.1714°W)
Time: 21:18:00
(UTC+01:00)

deb Kosmos-2123 - Pass Details

Date: 09 July 2022
Orbit: 942 x 985 km, 82.9° (Epoch: 17 August)

Event Time Altitude Azimuth Distance (km) Brightness Sun altitude
Exits shadow 01:09:57 16° 180° (S) 2,337 ? -12.0°
Maximum altitude 01:15:08 76° 97° (E) 1,016 ? -12.0°
Drops below altitude 10° 01:21:23 10° 14° (NNE) 2,731 ? -12.0°
Sets 01:23:53 0° 13° (NNE) 3,676 ? -12.0°
